OK1JIL-13 Weather Reports


time (UTC)temp
C
wind
direction
speed
KPH
gust
KPH
rain 1hr
cm
rain 24hr
cm
rain mn
cm
humidity
%
barometer
mb
20260504185950 20 0.0 0.0 0.00 0.00 0.00 36 1015.0
20260504184950 20 0.0 0.0 0.00 0.00 0.00 36 1014.9
20260504183950 20 0.0 0.0 0.00 0.00 0.00 36 1014.9
20260504182950 20 0.0 0.0 0.00 0.00 0.00 36 1014.9
20260504181950 20 0.0 0.0 0.00 0.00 0.00 38 1015.0
20260504180951 19 0.0 0.0 0.00 0.00 0.00 39 1014.9
20260504175951 19 0.0 0.0 0.00 0.00 0.00 39 1014.9
20260504174950 20 0.0 0.0 0.00 0.00 0.00 39 1014.9
20260504173950 20 0.0 0.0 0.00 0.00 0.00 39 1014.9
20260504172950 20 0.0 0.0 0.00 0.00 0.00 39 1014.9
20260504171950 20 0.0 0.0 0.00 0.00 0.00 39 1014.8
20260504170950 20 0.0 0.0 0.00 0.00 0.00 39 1014.8
20260504150950 21 0.0 0.0 0.00 0.00 0.00 33 1015.1
20260504140949 22 0.0 0.0 0.00 0.00 0.00 31 1015.3
20260504081948 18 0.0 0.0 0.00 0.00 0.00 35 1016.4
20260504080948 15 0.0 0.0 0.00 0.00 0.00 43 1016.3
20260504045948 12 0.0 0.0 0.00 0.00 0.00 42 1015.8
20260504044948 12 0.0 0.0 0.00 0.00 0.00 44 1015.9
20260504043948 12 0.0 0.0 0.00 0.00 0.00 43 1015.8
20260504042948 12 0.0 0.0 0.00 0.00 0.00 43 1015.9
20260504041948 12 0.0 0.0 0.00 0.00 0.00 43 1015.9
20260504040948 12 0.0 0.0 0.00 0.00 0.00 42 1015.9
20260504035948 12 0.0 0.0 0.00 0.00 0.00 43 1015.8
20260504034948 12 0.0 0.0 0.00 0.00 0.00 42 1015.9
20260504033948 12 0.0 0.0 0.00 0.00 0.00 42 1015.8
20260504032948 12 0.0 0.0 0.00 0.00 0.00 42 1015.8
20260504031948 12 0.0 0.0 0.00 0.00 0.00 42 1015.8
20260504030948 12 0.0 0.0 0.00 0.00 0.00 42 1015.8
20260504025948 12 0.0 0.0 0.00 0.00 0.00 41 1015.9
20260504024948 12 0.0 0.0 0.00 0.00 0.00 40 1015.9
20260504023948 12 0.0 0.0 0.00 0.00 0.00 40 1015.9
20260504022948 12 0.0 0.0 0.00 0.00 0.00 41 1015.9
20260504021948 12 0.0 0.0 0.00 0.00 0.00 40 1015.9
20260504020948 13 0.0 0.0 0.00 0.00 0.00 39 1015.9
20260504015948 13 0.0 0.0 0.00 0.00 0.00 39 1015.9
20260504014948 12 0.0 0.0 0.00 0.00 0.00 42 1015.9
20260504013949 12 0.0 0.0 0.00 0.00 0.00 41 1015.9
20260504012948 12 0.0 0.0 0.00 0.00 0.00 41 1015.9
20260504011948 13 0.0 0.0 0.00 0.00 0.00 39 1015.9
20260504010948 13 0.0 0.0 0.00 0.00 0.00 38 1016.1
20260504005948 12 0.0 0.0 0.00 0.00 0.00 41 1015.9
20260504004948 13 0.0 0.0 0.00 0.00 0.00 38 1016.1
20260504003948 13 0.0 0.0 0.00 0.00 0.00 40 1016.1
20260504002948 13 0.0 0.0 0.00 0.00 0.00 41 1016.1
20260504001948 12 0.0 0.0 0.00 0.00 0.00 42 1016.0
20260504000950 13 0.0 0.0 0.00 0.00 0.00 39 1016.2
20260503235946 13 0.0 0.0 0.00 0.00 0.00 40 1016.3
20260503234946 13 0.0 0.0 0.00 0.00 0.00 41 1016.2
20260503233946 13 0.0 0.0 0.00 0.00 0.00 42 1016.3
20260503232946 13 0.0 0.0 0.00 0.00 0.00 42 1016.3
20260503231946 13 0.0 0.0 0.00 0.00 0.00 42 1016.5
20260503230946 13 0.0 0.0 0.00 0.00 0.00 42 1016.6
20260503225946 13 0.0 0.0 0.00 0.00 0.00 41 1016.6
20260503224946 13 0.0 0.0 0.00 0.00 0.00 41 1016.6
20260503223946 14 0.0 0.0 0.00 0.00 0.00 40 1016.7
20260503222946 14 0.0 0.0 0.00 0.00 0.00 40 1016.6
20260503221946 15 0.0 0.0 0.00 0.00 0.00 39 1016.7
20260503220946 15 0.0 0.0 0.00 0.00 0.00 38 1016.8
20260503215946 15 0.0 0.0 0.00 0.00 0.00 39 1016.8
20260503214946 15 0.0 0.0 0.00 0.00 0.00 37 1016.9
20260503213946 16 0.0 0.0 0.00 0.00 0.00 36 1016.8
20260503212946 16 0.0 0.0 0.00 0.00 0.00 35 1016.9
20260503211946 16 0.0 0.0 0.00 0.00 0.00 35 1016.9
20260503210946 16 0.0 0.0 0.00 0.00 0.00 34 1016.9
20260503205946 16 0.0 0.0 0.00 0.00 0.00 34 1016.9
20260503204946 17 0.0 0.0 0.00 0.00 0.00 34 1017.0
20260503203946 17 0.0 0.0 0.00 0.00 0.00 33 1017.0
20260503201946 17 0.0 0.0 0.00 0.00 0.00 32 1017.1
20260503200946 17 0.0 0.0 0.00 0.00 0.00 33 1017.1
20260503195946 16 0.0 0.0 0.00 0.00 0.00 34 1017.1
20260503194948 17 0.0 0.0 0.00 0.00 0.00 35 1017.2
20260503193946 17 0.0 0.0 0.00 0.00 0.00 35 1017.1
20260503192946 17 0.0 0.0 0.00 0.00 0.00 35 1017.0
20260503191946 17 0.0 0.0 0.00 0.00 0.00 34 1017.0
20260503190946 17 0.0 0.0 0.00 0.00 0.00 33 1017.0